Location: Cactus School
(34.5700°N, 118.0931°W)
Time: 08:41:16
(UTC-07:00)

S-56A Canister/Altair - Pass Details

Date: 15 April 2024
Orbit: 638 x 2488 km, 38.9° (Epoch: 29 May)

Event Time Altitude Azimuth Distance (km) Brightness Sun altitude
Rises 22:31:08 0° 287° (WNW) 4,235 12.1 -34.1°
Reaches altitude 10° 22:33:36 10° 288° (WNW) 3,476 11.5 -34.4°
Maximum altitude 22:42:55 81° 17° (NNE) 1,867 9.2 -35.7°
Enters shadow 22:45:19 63° 89° (E) 2,128 9.4 -36.0°
Drops below altitude 10° 22:56:37 10° 105° (ESE) 4,936 - -37.4°
Sets 23:00:50 0° 106° (ESE) 6,069 - -37.9°
